Location: Newark
(33.6333°S, 78.8500°W)
Time: 19:21:53
(UTC+00:00)

A-11 Canister half - All Passes

Search period start: 17 September 2019 00:00
Search period end: 27 September 2019 00:00
Orbit: 1527 x 1682 km, 47.3° (Epoch: 16 September)

Date Brightness Start Highest point End Pass type
(mag) Time Alt. Az. Time Alt. Az. Time Alt. Az.
17 Sep - 00:36:32 10° WSW 00:45:29 37° S 00:54:13 10° ESE visible
17 Sep - 02:43:29 10° SW 02:52:43 45° SSE 03:01:39 10° E visible
17 Sep - 04:48:50 10° SW 04:58:24 78° NW 05:07:42 10° NE visible
17 Sep - 06:56:04 10° W 07:02:15 20° NW 07:08:26 10° NNW night (unlit)
17 Sep - 20:02:42 10° NNW 20:12:07 46° NE 20:21:23 10° ESE daylight
17 Sep - 22:07:02 10° WNW 22:17:03 66° SSW 22:26:50 10° SE daylight
18 Sep - 00:14:44 10° WSW 00:23:45 37° S 00:32:31 10° ESE visible
18 Sep - 02:21:48 10° SW 02:31:01 44° SSE 02:39:56 10° E visible
18 Sep - 04:27:10 10° SW 04:36:47 82° NW 04:46:07 10° NE visible
18 Sep - 06:34:09 10° W 06:40:43 21° NW 06:47:14 10° N night (unlit)
18 Sep - 19:41:12 10° NNW 19:50:30 43° NE 19:59:41 10° ESE daylight
18 Sep - 21:45:18 10° WNW 21:55:22 68° SSW 22:05:12 10° SE daylight
18 Sep - 23:52:56 10° WSW 00:02:01 38° S 00:10:50 10° ESE visible
19 Sep - 02:00:06 10° SW 02:09:18 43° SSE 02:18:12 10° E visible
19 Sep - 04:05:31 10° SW 04:15:11 86° NW 04:24:32 10° NE visible
19 Sep - 06:12:17 10° WSW 06:19:10 23° NW 06:25:59 10° N night (unlit)
19 Sep - 19:19:43 10° NNW 19:28:54 41° NE 19:37:57 10° ESE daylight
19 Sep - 21:23:36 10° WNW 21:33:41 71° SSW 21:43:34 10° SE daylight
19 Sep - 23:31:08 10° WSW 23:40:16 38° S 23:49:09 10° ESE visible
20 Sep - 01:38:23 10° SW 01:47:35 42° SSE 01:56:29 10° E visible
20 Sep - 03:43:51 10° SW 03:53:33 89° NW 04:02:56 10° NE visible
20 Sep - 05:50:26 10° WSW 05:57:37 25° NW 06:04:43 10° N night (unlit)
20 Sep - 18:58:14 10° NNW 19:07:18 38° NE 19:16:14 10° ESE daylight
20 Sep - 21:01:52 10° WNW 21:12:00 74° SSW 21:21:56 10° SE daylight
20 Sep - 23:09:20 10° WSW 23:18:31 39° S 23:27:29 10° SE daylight
21 Sep - 01:16:41 10° SW 01:25:52 41° SSE 01:34:44 10° E visible
21 Sep - 03:22:11 10° SW 03:31:55 88° SE 03:41:19 10° NE visible
21 Sep - 05:28:37 10° WSW 05:36:04 27° NW 05:43:24 10° N visible
21 Sep - 18:36:47 10° N 18:45:42 36° NE 18:54:30 10° ESE daylight
21 Sep - 20:40:10 10° WNW 20:50:20 76° SW 21:00:18 10° SE daylight
21 Sep - 22:47:32 10° W 22:56:47 39° SSW 23:05:47 10° SE daylight
22 Sep - 00:54:58 10° SW 01:04:08 41° SSE 01:13:00 10° E visible
22 Sep - 03:00:32 10° SW 03:10:18 84° SE 03:19:43 10° NE visible
22 Sep - 05:06:48 10° WSW 05:14:31 29° NW 05:22:05 10° N visible
22 Sep - 18:15:21 10° N 18:24:05 34° NE 18:32:44 10° ESE daylight
22 Sep - 20:18:28 10° WNW 20:28:39 79° SW 20:38:40 10° SE daylight
22 Sep - 22:25:44 10° W 22:35:02 40° SSW 22:44:07 10° SE daylight
23 Sep - 00:33:14 10° SW 00:42:25 40° SSE 00:51:16 10° E visible
23 Sep - 02:38:52 10° SW 02:48:39 81° SE 02:58:05 10° ENE visible
23 Sep - 04:45:01 10° WSW 04:52:57 31° NW 05:00:44 10° N visible
23 Sep - 17:53:56 10° N 18:02:29 32° NE 18:10:58 10° ESE daylight
23 Sep - 19:56:46 10° NW 20:06:59 82° SW 20:17:02 10° SE daylight
23 Sep - 22:03:55 10° W 22:13:18 41° SSW 22:22:27 10° SE daylight
24 Sep - 00:11:31 10° SW 00:20:41 39° SSE 00:29:32 10° E visible
24 Sep - 02:17:12 10° SW 02:27:01 78° SE 02:36:27 10° ENE visible
24 Sep - 04:23:13 10° WSW 04:31:23 33° NW 04:39:22 10° N visible
24 Sep - 17:32:32 10° N 17:40:53 30° NE 17:49:11 10° ESE daylight
24 Sep - 19:35:06 10° NW 19:45:19 86° SW 19:55:23 10° SE daylight
24 Sep - 21:42:08 10° W 21:51:33 42° SSW 22:00:46 10° SE daylight
24 Sep - 23:49:47 10° SW 23:58:56 39° S 00:07:47 10° ESE visible
25 Sep - 01:55:32 10° SW 02:05:22 75° SSE 02:14:49 10° ENE visible
25 Sep - 04:01:28 10° WSW 04:09:49 35° NW 04:18:00 10° N visible
25 Sep - 17:11:10 10° N 17:19:18 28° NE 17:27:22 10° ESE daylight
25 Sep - 19:13:26 10° NW 19:23:39 89° SW 19:33:44 10° SE daylight
25 Sep - 21:20:20 10° W 21:29:48 43° SSW 21:39:05 10° SE daylight
25 Sep - 23:28:02 10° WSW 23:37:12 38° S 23:46:04 10° ESE visible
26 Sep - 01:33:52 10° SW 01:43:42 72° SSE 01:53:10 10° ENE visible
26 Sep - 03:39:43 10° WSW 03:48:15 37° NW 03:56:35 10° NNE visible
26 Sep - 16:49:49 10° N 16:57:42 26° NE 17:05:33 10° ESE daylight
26 Sep - 18:51:46 10° NW 19:01:59 88° NE 19:12:06 10° SE daylight
26 Sep - 20:58:31 10° W 21:08:04 44° SSW 21:17:26 10° SE daylight
26 Sep - 23:06:18 10° WSW 23:15:27 38° S 23:24:19 10° ESE daylight
